Regional Weather Roundup
Issued by NWS Little Rock, AR

Home | Current Version | Previous Version | Graphics & Text | Print | Product List | Glossary On
Versions: 1 2 3 4 5 6 7 8 9 10 11 12 13 14 15 16 17 18 19 20 21 22 23 24 25 26 27 28 29 30 31
000
ASUS44 KLZK 280905
RWRLZK

WEATHER ROUNDUP FOR ARKANSAS
NATIONAL WEATHER SERVICE LITTLE ROCK AR
400 AM CDT SUN MAY 28 2017

NOTE: "FAIR" INDICATES FEW OR NO CLOUDS BELOW 12,000 FEET WITH NO
SIGNIFICANT WEATHER AND/OR OBSTRUCTIONS TO VISIBILITY.

ARZ001-003-010-029-281000-
NORTHWEST ARKANSAS

CITY           SKY/WX    TMP DP  RH WIND       PRES   REMARKS
FAYETTEVILLE   CLOUDY    65  65 100 CALM      29.81F
FORT SMITH     CLOUDY    72  62  71 W9        29.78R
HARRISON       CLOUDY    64  63  96 SE5       29.82R
BENTONVILLE    CLOUDY    64  63  94 N8        29.84S
ROGERS         LGT RAIN  64  64 100 NW10      29.84F
SILOAM SPGS    CLOUDY    64  61  88 N8        29.82F
HIGHFILL       CLOUDY    66  65  96 N10       29.84R
$$

ARZ004-005-016-281000-
NORTH CENTRAL ARKANSAS

CITY           SKY/WX    TMP DP  RH WIND       PRES   REMARKS
BATESVILLE     CLOUDY    63  63 100 S7        29.89F
FLIPPIN        CLOUDY    64  57  77 S12G24    29.74F
MTN HOME       CLOUDY    63  62  97 E5G16     29.81R
$$

ARZ040-041-281000-
WEST CENTRAL ARKANSAS

CITY           SKY/WX    TMP DP  RH WIND       PRES   REMARKS
MENA           CLOUDY    68  68 100 CALM      29.86R
MOUNT IDA      LGT RAIN  67  67 100 CALM      29.82F
$$

ARZ009-017-025-026-028-281000-
NORTHEAST ARKANSAS

CITY           SKY/WX    TMP DP  RH WIND       PRES   REMARKS
JONESBORO      TSTM      65  63  93 S13G22    29.90R
NEWPORT        LGT RAIN  64  63  96 SE21      29.84F
WALNUT RIDGE   CLOUDY    64  61  88 S21       29.86R
BLYTHEVILLE    RAIN      65  65 100 S21       29.85F
$$

ARZ022-023-033-042-044-281000-
CENTRAL ARKANSAS

CITY           SKY/WX    TMP DP  RH WIND       PRES   REMARKS
LITTLE ROCK    TSTM      64  64 100 SE5       29.96R FOG
N LITTLE ROCK    N/A     64  63  96 E8G16     29.94R
JACKSONVILLE   LGT RAIN  65  65 100 E9        29.93F FOG
CONWAY           N/A     66  64  94 SE17      29.90F FOG
SEARCY         RAIN      64  64 100 S10       29.97R
HOT SPRINGS    TSTM      69  68  96 E10       29.85F
RUSSELLVILLE   LGT RAIN  67  65  93 VRB6      29.75F
CLINTON        MOCLDY    64  63  94 CALM      29.91S THUNDER
$$

ARZ036-281000-
EAST ARKANSAS

CITY           SKY/WX    TMP DP  RH WIND       PRES   REMARKS
WEST MEMPHIS   TSTM      65  65 100 S12       29.92F
$$

ARZ050-053-066-070-073-281000-
SOUTHWEST ARKANSAS

CITY           SKY/WX    TMP DP  RH WIND       PRES   REMARKS
ARKADELPHIA    TSTM      67  67 100 VRB5      29.87R
CAMDEN         HVY RAIN  73  66  78 W16G26    29.94R
TEXARKANA      TSTM      66  66 100 W3        29.92R
EL DORADO      CLOUDY    74  72  93 NW5       29.92R
DE QUEEN       LGT RAIN  66  66 100 SW6       29.91R
$$

ARZ056-057-069-281000-
SOUTHEAST ARKANSAS

CITY           SKY/WX    TMP DP  RH WIND       PRES   REMARKS
STUTTGART      CLOUDY    64  54  68 E14       29.99R THUNDER
MONTICELLO     CLOUDY    77  72  84 VRB5      29.94R

$$






USA.gov is the U.S. government's official web portal to all federal, state and local government web resources and services.